Ponca City, OK

1:51 PM CDT on July 27, 2017 (GMT -0500)
Ponca City Municipal

Weather History for KPNC - June, 2013

Change the Weather History Date:

Saturday, June 29, 2013

  Actual Average Record
Temperature  
Mean Temperature 80 °F -  
Max Temperature 93 °F 95 °F 103 °F (1952)
Min Temperature 66 °F 69 °F 61 °F (1948)
Cooling Degree Days 16    
Growing Degree Days 30 (Base 50)    
Moisture  
Dew Point 57 °F    
Average Humidity 51    
Maximum Humidity 81    
Minimum Humidity 25    
Precipitation  
Precipitation 0.00 in - - ()
Sea Level Pressure  
Sea Level Pressure 29.89 in    
Wind  
Wind Speed 7 mph (North)    
Max Wind Speed 23 mph    
Max Gust Speed 29 mph    
Visibility 10 miles    
Events      
Averages and records for this station are not official NWS values.
T = Trace of Precipitation, MM = Missing Value Source: NWS Daily Summary

Daily Weather History Graph

Daily Weather History Graph

Search for Another Location

Airport or City:

Trip Planner

Search our weather history database for the weather conditions in past years. The results will help you decide how hot, cold, wet, or windy it might be!

Date:

Astronomy

Jun. 29, 2013 Rise Set
Actual Time 6:12 AM CDT 8:51 PM CDT
Civil Twilight 5:41 AM CDT 9:21 PM CDT
Nautical Twilight 5:03 AM CDT 9:59 PM CDT
Astronomical Twilight 4:21 AM CDT 10:42 PM CDT
Moon 12:31 AM CDT (6/29) 1:13 PM CDT (6/29)
Length of Visible Light 15h 39m
Length of Day
14h 38m
Waning Gibbous, 55% of the Moon is Illuminated
Jun 29
Waning Gibbous
Jun 29
Last Quarter
Jul 8
New
Jul 15
First Quarter
Jul 22
Full

Hourly Weather History & Observations

Time (CDT) Temp. Heat Index Dew Point Humidity Pressure Visibility Wind Dir Wind Speed Gust Speed Precip Events Conditions
12:53 AM 71.1 °F - 62.1 °F 73% 29.88 in 10.0 mi North 3.5 mph - N/A   Clear
1:53 AM 70.0 °F - 61.0 °F 73% 29.90 in 10.0 mi Calm Calm - N/A   Clear
2:53 AM 70.0 °F - 63.0 °F 78% 29.91 in 10.0 mi Calm Calm - N/A   Scattered Clouds
3:53 AM 70.0 °F - 64.0 °F 81% 29.91 in 10.0 mi Calm Calm - N/A   Mostly Cloudy
4:53 AM 69.1 °F - 63.0 °F 81% 29.92 in 10.0 mi Calm Calm - N/A   Scattered Clouds
5:53 AM 68.0 °F - 62.1 °F 81% 29.93 in 10.0 mi Calm Calm - N/A   Clear
6:53 AM 69.1 °F - 63.0 °F 81% 29.94 in 10.0 mi NW 3.5 mph - N/A   Clear
7:53 AM 73.0 °F - 62.1 °F 68% 29.93 in 10.0 mi North 5.8 mph - N/A   Clear
8:53 AM 77.0 °F - 61.0 °F 58% 29.96 in 10.0 mi NNW 4.6 mph - N/A   Clear
9:53 AM 82.0 °F 82.4 °F 60.1 °F 47% 29.94 in 10.0 mi Variable 4.6 mph - N/A   Clear
10:53 AM 86.0 °F 84.2 °F 54.0 °F 33% 29.92 in 10.0 mi NNW 12.7 mph 19.6 mph N/A   Clear
11:53 AM 88.0 °F 85.7 °F 53.1 °F 30% 29.91 in 10.0 mi North 15.0 mph - N/A   Clear
12:53 PM 91.0 °F 88.5 °F 53.1 °F 27% 29.91 in 10.0 mi North 23.0 mph 28.8 mph N/A   Clear
1:53 PM 91.0 °F 88.7 °F 54.0 °F 28% 29.89 in 10.0 mi North 17.3 mph 23.0 mph N/A   Clear
2:53 PM 91.9 °F 89.5 °F 54.0 °F 27% 29.87 in 10.0 mi North 16.1 mph 25.3 mph N/A   Partly Cloudy
3:53 PM 93.0 °F - 52.0 °F 25% 29.85 in 10.0 mi North 18.4 mph 26.5 mph N/A   Clear
4:53 PM 91.9 °F 89.5 °F 53.1 °F 27% 29.83 in 10.0 mi North 17.3 mph 27.6 mph N/A   Clear
5:53 PM 91.9 °F 89.5 °F 53.1 °F 27% 29.82 in 10.0 mi North 19.6 mph 28.8 mph N/A   Clear
6:53 PM 90.0 °F - 51.1 °F 26% 29.81 in 10.0 mi North 18.4 mph 25.3 mph N/A   Clear
7:53 PM 88.0 °F - 52.0 °F 29% 29.81 in 10.0 mi North 13.8 mph - N/A   Clear
8:53 PM 80.1 °F 79.9 °F 53.1 °F 39% 29.84 in 10.0 mi NNE 9.2 mph - N/A   Clear
9:53 PM 73.9 °F - 53.1 °F 48% 29.86 in 10.0 mi NNE 5.8 mph - N/A   Clear
10:53 PM 68.0 °F - 54.0 °F 61% 29.89 in 10.0 mi NNE 6.9 mph - N/A   Clear
11:53 PM 66.9 °F - 55.0 °F 66% 29.89 in 10.0 mi NNE 3.5 mph - N/A   Clear